Lexington Weather

Lexington, Massachusetts, USA

44°F
5/12/2021 4:12am 
  • Lexington Conditions: Clear
  • Temperature: 44.4°F / 6.9°CColder 0.9°F than last hour.
  • Dew Point: 32.5°FIncreased 0.7°Fsince last hour.
  • Relative Humidity: 63%Increased 4.0% since last hour.
  • Wind: Wind from NW NW 1 mph, 10-min avg: 1 mph, gust: 7 mph
  • Barometer: 29.92 in Steady
  • Visibility: 10 miles
  • Rain Today: 0.00 in
  •   

Regional Weather Roundup
for Boston / Norton, MA

        
000
ASUS41 KBOX 072305
RWRBOX

REGIONAL WEATHER ROUNDUP
NATIONAL WEATHER SERVICE BOSTON/NORTON MA
700 PM EDT FRI MAY 07 2021

NOTE:  "FAIR" INDICATES FEW OR NO CLOUDS BELOW 12,000 FEET WITH NO 
SIGNIFICANT WEATHER AND/OR OBSTRUCTIONS TO VISIBILITY.

MAZALL-080000-
EASTERN MASSACHUSETTS
  
CITY           SKY/WX    TMP DP  RH WIND       PRES   REMARKS
BOSTON         MOCLDY    51  38  60 E13       29.97S                  
BEVERLY        PTCLDY    50  35  56 SE8       29.96S                  
LAWRENCE       PTCLDY    54  27  35 SE6       29.97S                  
BEDFORD        CLOUDY    52  28  39 SE13      29.94F                  
BLUE HILL        N/A     50  28  42 E12       29.93S                  
NORWOOD        CLOUDY    54  29  38 E9        29.94F                  
MARSHFIELD     PTCLDY    52  43  71 MISG      29.95F                  
PLYMOUTH       PTCLDY    52  29  41 E7        29.94F                  
TAUNTON        PTCLDY    55  30  38 E6        29.93F                  
NEW BEDFORD    PTCLDY    55  32  41 E9        29.92F                  
$$

MAZALL-080000-
CAPE COD AND THE ISLANDS
  
CITY           SKY/WX    TMP DP  RH WIND       PRES   REMARKS
FALMOUTH       CLEAR     54  25  32 E12       29.94F                  
HYANNIS        CLEAR     54  27  35 E8        29.92F                  
CHATHAM        CLEAR     50  38  63 NE7       29.96F                  
PROVINCETOWN   CLEAR     51  39  63 E10       29.97S                  
NANTUCKET      CLEAR     51  38  60 NE13      29.93S                  
MARTHAS VNYRD  PTCLDY    50  40  68 E10       29.93F                  
$$
 
MAZALL-080000-
CENTRAL AND WESTERN MASSACHUSETTS
  
CITY           SKY/WX    TMP DP  RH WIND       PRES   REMARKS
WORCESTER      CLOUDY    52  35  52 E8        29.92S                  
FITCHBURG      CLOUDY    53  31  42 E10       29.94S                  
ORANGE         CLOUDY    56  38  50 E9        29.91S                  
SPRINGFIELD    CLOUDY    57  38  49 SE9       29.88S                  
WESTFIELD      LGT RAIN  55  40  56 E5        29.89R                  
NORTH ADAMS    MOCLDY    58  35  42 SE10      29.86S                  
PITTSFIELD     CLOUDY    54  35  48 E10       29.85S                  
$$
 
RIZALL-080000-
RHODE ISLAND
  
CITY           SKY/WX    TMP DP  RH WIND       PRES   REMARKS
PROVIDENCE     MOCLDY    57  32  38 SE9       29.93S                  
NEWPORT        PTCLDY    53  37  54 E9        29.92F                  
BLOCK ISLAND   PTCLDY    49  42  77 E10       29.92F                  
SMITHFIELD       N/A     54  36  50 VRB3      29.92F                  
WESTERLY       PTCLDY    50  39  66 E13       29.91F                  
$$
 
CTZALL-080000-
CONNECTICUT
  
CITY           SKY/WX    TMP DP  RH WIND       PRES   REMARKS
BRADLEY INTL   MOCLDY    57  35  43 S10       29.88S                  
HARTFORD       PTCLDY    57  35  43 S9        29.89S                  
BRIDGEPORT     MOCLDY    54  45  71 E13       29.88F                  
DANBURY        MOCLDY    57  40  52 SE12      29.88S                  
GROTON         CLEAR     51  42  71 E12       29.91F                  
NEW HAVEN      PTCLDY    55  45  68 E12G22    29.89F                  
CHESTER        FAIR      54  36  50 SE9       29.90F                  
MERIDEN        PTCLDY    56  38  50 S10       29.89F                  
WILLIMANTIC    PTCLDY    57  35  43 S7        29.90S                  
OXFORD         MOCLDY    53  38  56 SE12      29.89S                  
$$

MEZ002-015-021-024-NHZ003-005-008-011-012-014-VTZ005-008-080000-
NORTHERN NEW ENGLAND
  
CITY           SKY/WX    TMP DP  RH WIND       PRES   REMARKS
PORTLAND ME    PTCLDY    50  31  48 S9        29.96R                  
BANGOR ME      PTCLDY    59  24  26 NE9       29.95R                  
CONCORD NH     PTCLDY    55  29  36 SE8       29.93R                  
MANCHESTER NH  MOCLDY    57  27  31 S12       29.92R                  
NASHUA NH      PTCLDY    55  28  35 SE8       29.95R                  
PORTSMOUTH NH  MOCLDY    51  25  36 S8        29.97S                  
JAFFREY NH     MOCLDY    53  37  54 VRB7      29.92R                  
KEENE NH       CLOUDY    56  38  50 SE12      29.90S                  
BURLINGTON VT  CLOUDY    59  28  30 NW13      29.86S                  
MT. WASHINGTON MOCLDY    32  23  69 SE13        N/A  WCI  22          
$$

NYZ052-076-080000-
EASTERN NEW YORK
  
CITY           SKY/WX    TMP DP  RH WIND       PRES   REMARKS
ALBANY         CLOUDY    58  34  40 SE10      29.83S                  
NEW YORK CITY  CLOUDY    58  42  55 SE15      29.85S                  
$$
 
ANZALL-080000-
MARINE OBSERVATIONS
  
STATION/POSITION TIME  TEMP    WIND        PRES    VSBY  WAVE
                       AIR SEA DIR/SP/G                  HT/PER
                 (UTC) (F)     (DEG/KT/KT) (MB)    (MI)  (FT/S)
BOSTON BUOY      2250   47 48  110/ 10/ 12 1014.5F         2/ 3
BUZZARDS BAY     2200          110/ 13/ 14 1014.5F
NANTUCKET SOUND  2250      52                N/A           2/ 4
MASS BAY-STELLWA 2204   48     120/  8/ 10 1013.8R  1 5/8  2/ 3
ISLE OF SHOALS   2200   48     150/ 13/ 14 1014.0F
S OF BLOCK IS    2226      50                N/A           3/ 4
$$

......................KEY.........................
  SKY/WX - SKY CONDITION/PRESENT WEATHER
  TMP    - TEMPERATURE IN FAHRENHEIT
  DWPT   - DEWPOINT IN FAHRENHEIT
  RH     - RELATIVE HUMIDITY IN PERCENT
  WIND   - DIRECTION AND SPEED IN MPH
  PRES   - MEAN SEA LEVEL PRESSURE IN INCHES OF HG
  WCI    - WIND CHILL INDEX
  VSB    - VISIBILITY IN MILES
  HX     - HEAT INDEX
  TC     - TEMPERATURE IN CELSIUS
  VRB    - VARIABLE WIND DIRECTION
  N/A    - NOT AVAILABLE
  
      

Other recent Regional Weather Roundups

Wed May 12, 3:04am

Wed May 12, 2:04am

Wed May 12, 1:04am

Wed May 12, 12:05am

Tue May 11, 11:05pm

Tue May 11, 10:04pm

Tue May 11, 9:05pm

Tue May 11, 8:05pm

Tue May 11, 7:04pm

Tue May 11, 6:04pm

Tue May 11, 5:04pm

Tue May 11, 4:05pm

Tue May 11, 3:04pm

Tue May 11, 2:05pm

Tue May 11, 1:04pm

Tue May 11, 12:05pm

Tue May 11, 11:05am

Tue May 11, 10:04am

Tue May 11, 9:04am

Tue May 11, 8:04am

Tue May 11, 7:05am

Tue May 11, 6:04am

Tue May 11, 5:04am

Tue May 11, 4:04am

Tue May 11, 3:04am

Tue May 11, 2:04am

Tue May 11, 1:04am

Tue May 11, 12:04am

Mon May 10, 11:04pm

Mon May 10, 10:04pm

Mon May 10, 9:05pm

Mon May 10, 8:04pm

Mon May 10, 7:05pm

Mon May 10, 6:04pm

Mon May 10, 5:04pm

Mon May 10, 4:04pm

Mon May 10, 3:04pm

Mon May 10, 2:04pm

Mon May 10, 1:04pm

Mon May 10, 12:04pm

Mon May 10, 11:05am

Mon May 10, 10:04am

Mon May 10, 9:04am

Mon May 10, 8:04am

Mon May 10, 7:04am

Mon May 10, 6:04am

Mon May 10, 5:05am

Mon May 10, 4:04am

Mon May 10, 3:04am

Mon May 10, 2:04am

Mon May 10, 1:04am

Mon May 10, 12:04am

Sun May 9, 11:04pm

Sun May 9, 10:04pm

Sun May 9, 9:04pm

Sun May 9, 8:04pm

Sun May 9, 7:05pm

Sun May 9, 6:04pm

Sun May 9, 5:04pm

Sun May 9, 4:04pm

Sun May 9, 3:04pm

Sun May 9, 2:04pm

Sun May 9, 1:05pm

Sun May 9, 12:04pm

Sun May 9, 11:05am

Sun May 9, 10:04am

Sun May 9, 9:04am

Sun May 9, 8:04am

Sun May 9, 7:04am

Sun May 9, 6:04am

Sun May 9, 5:04am

Sun May 9, 4:04am

Sun May 9, 3:04am

Sun May 9, 2:04am

Sun May 9, 1:05am

Sun May 9, 12:04am

Sat May 8, 11:05pm

Sat May 8, 10:04pm

Sat May 8, 9:05pm

Sat May 8, 8:04pm

Sat May 8, 7:04pm

Sat May 8, 6:04pm

Sat May 8, 5:05pm

Sat May 8, 4:04pm

Sat May 8, 3:05pm

Sat May 8, 2:05pm

Sat May 8, 1:05pm

Sat May 8, 12:04pm

Sat May 8, 11:05am

Sat May 8, 10:04am

Sat May 8, 9:04am

Sat May 8, 8:04am

Sat May 8, 7:04am

Sat May 8, 6:04am

Sat May 8, 5:04am

Sat May 8, 4:04am

Sat May 8, 3:04am

Sat May 8, 2:04am

Sat May 8, 1:05am

Sat May 8, 12:04am

Fri May 7, 11:04pm

Fri May 7, 10:05pm

Fri May 7, 9:04pm

Fri May 7, 8:04pm

Fri May 7, 6:04pm

Fri May 7, 5:05pm

Fri May 7, 4:04pm

Fri May 7, 3:04pm

Fri May 7, 2:05pm

Fri May 7, 1:04pm

Fri May 7, 12:04pm

Fri May 7, 11:05am

Fri May 7, 10:04am

Fri May 7, 9:04am

Fri May 7, 8:05am

Fri May 7, 7:04am

Fri May 7, 6:04am

Fri May 7, 5:04am

Fri May 7, 4:04am

Fri May 7, 3:04am

Fri May 7, 2:05am

Fri May 7, 1:04am

Fri May 7, 12:05am

Thu May 6, 11:04pm

Thu May 6, 10:04pm

Thu May 6, 9:05pm

Thu May 6, 8:04pm

Thu May 6, 7:04pm

Thu May 6, 6:04pm

Thu May 6, 5:05pm

Thu May 6, 4:04pm

Thu May 6, 3:04pm

Thu May 6, 2:05pm

Thu May 6, 1:04pm

Thu May 6, 12:04pm

Thu May 6, 11:04am

Thu May 6, 10:04am

Thu May 6, 9:04am

Thu May 6, 8:04am

Thu May 6, 7:04am

Thu May 6, 6:04am

Thu May 6, 5:04am

Thu May 6, 4:04am

Thu May 6, 3:04am

Thu May 6, 2:05am

Thu May 6, 1:04am

Thu May 6, 12:05am

Wed May 5, 11:04pm

Wed May 5, 10:04pm

Wed May 5, 9:05pm

Wed May 5, 8:04pm

Wed May 5, 7:05pm

Wed May 5, 6:04pm

Wed May 5, 5:04pm

Wed May 5, 4:04pm

Wed May 5, 3:04pm

Wed May 5, 2:05pm

Wed May 5, 1:05pm

Wed May 5, 12:04pm

Wed May 5, 11:05am

Wed May 5, 10:04am

Wed May 5, 9:04am

Wed May 5, 8:04am

Wed May 5, 7:04am

Wed May 5, 6:05am

Wed May 5, 5:04am

Wed May 5, 4:04am

Meta data:

ID: 0370dfea-cef1-44ca-a3d1-7e589185ecf9
Link: https://api.weather.gov/products/0370dfea-cef1-44ca-a3d1-7e589185ecf9